Weather History for 78583 - April, 2014

Change the Weather History Date:

Friday, April 11, 2014

  Actual Average Record
Temperature  
Mean Temperature 77 °F -  
Max Temperature 86 °F 88 °F - ()
Min Temperature 68 °F 74 °F - ()
Cooling Degree Days 12    
Growing Degree Days 27 (Base 50)    
Moisture  
Dew Point 70 °F    
Average Humidity 75    
Maximum Humidity 94    
Minimum Humidity 51    
Precipitation  
Precipitation 0.08 in 0.09 in - ()
Sea Level Pressure  
Sea Level Pressure 30.03 in    
Wind  
Wind Speed 4 mph ()    
Max Wind Speed 9 mph    
Max Gust Speed -    
Visibility 7.9 miles    
Events Rain    
T = Trace of Precipitation, MM = Missing Value Source: Averaged Metar Reports

Daily Weather History Graph

Daily Weather History Graph

Search for Another Location

Airport or City:

Trip Planner

Search our weather history database for the weather conditions in past years. The results will help you decide how hot, cold, wet, or windy it might be!

Date:

Astronomy

Apr. 11, 2014 Rise Set
Actual Time 5:40 AM CST 6:08 PM CST
Civil Twilight 5:18 AM CST 6:30 PM CST
Nautical Twilight 4:52 AM CST 6:56 PM CST
Astronomical Twilight 4:26 AM CST 7:22 PM CST
Moon 3:15 PM CST (4/11) 3:04 AM CST (4/11)
Length of Visible Light 13h 12m
Length of Day
12h 28m
Waxing Gibbous, 87% of the Moon is Illuminated
Apr 11
Waxing Gibbous
Apr 15
Full
Apr 22
Last Quarter
Apr 29
New
May 6
First Quarter

Hourly Weather History & Observations

Time (CST) Temp. Heat Index Dew Point Humidity Pressure Visibility Wind Dir Wind Speed Gust Speed Precip Events Conditions
12:00 AM 76 °F - 66 °F 63% 30.09 in 14 mi East 5.8 mph - -   Scattered Clouds
3:00 AM 70 °F - 66 °F 83% 30.03 in 12 mi Calm Calm - -   Scattered Clouds
5:00 AM 69.8 °F - 66.2 °F 88% 30.04 in 6.2 mi Calm Calm - N/A   Mostly Cloudy
6:00 AM 69 °F - 66 °F 87% 30.06 in 12 mi Calm Calm - -   Mostly Cloudy
6:00 AM 69.8 °F - 66.2 °F 88% 30.06 in 6.2 mi Calm Calm - N/A   Mostly Cloudy
7:00 AM 71.6 °F - 68.0 °F 88% 30.07 in 6.2 mi Calm Calm - N/A   Mostly Cloudy
8:00 AM 77.0 °F - 69.8 °F 78% 30.08 in 6.2 mi Calm Calm - N/A   Mostly Cloudy
9:00 AM 82 °F - 68 °F 55% 30.09 in 12 mi East 8.1 mph - -   Mostly Cloudy
9:00 AM 82.4 °F 85.4 °F 68.0 °F 62% 30.08 in 6.2 mi East 8.1 mph - N/A   Scattered Clouds
10:00 AM 82.4 °F 85.4 °F 68.0 °F 62% 30.08 in 6.2 mi ENE 9.2 mph - N/A   Scattered Clouds
11:00 AM 82.4 °F 85.4 °F 68.0 °F 62% 30.06 in 6.2 mi ENE 6.9 mph - N/A   Scattered Clouds
12:00 PM 84 °F - 69 °F 51% 30.04 in 14 mi ENE 6.9 mph - -   Partly Cloudy
12:00 PM 84.2 °F 87.3 °F 68.0 °F 58% 30.03 in 6.2 mi ENE 6.9 mph - N/A   Scattered Clouds
1:00 PM 86.0 °F 90.4 °F 69.8 °F 58% 30.00 in 6.2 mi East 8.1 mph - N/A   Scattered Clouds
2:00 PM 84.2 °F 88.4 °F 69.8 °F 62% 29.98 in 6.2 mi ENE 8.1 mph - N/A   Mostly Cloudy
3:00 PM 78 °F - 72 °F 77% 29.99 in 7 mi SE 5.8 mph - - Rain Light Rain Showers
3:00 PM 78.8 °F - 71.6 °F 78% 29.98 in 6.2 mi SE 5.8 mph - N/A Rain Light Rain Showers
3:20 PM 78.8 °F - 71.6 °F 78% 29.97 in 2.5 mi SSE 5.8 mph - N/A Rain Rain Showers
4:00 PM 75.2 °F - 73.4 °F 94% 29.95 in 6.2 mi North 5.8 mph - N/A Rain Light Rain Showers
5:00 PM 77.0 °F - 73.4 °F 89% 29.96 in 6.2 mi North 3.5 mph - N/A   Mostly Cloudy
6:00 PM 77 °F - 73 °F 84% 29.97 in 12 mi NNE 4.6 mph - -   Partly Cloudy
6:00 PM 77.0 °F - 73.4 °F 89% 29.97 in 6.2 mi NNE 4.6 mph - N/A   Mostly Cloudy
9:00 PM 77 °F - 73 °F 84% 30.03 in 12 mi ENE 3.5 mph - -   Scattered Clouds
9:00 PM 77.0 °F - 73.4 °F 89% 30.03 in 6.2 mi ENE 3.5 mph - N/A   Partly Cloudy